CW9119 Weather Reports


Display with metric or nautical units.
time (UTC)temp
F
wind
direction
speed
MPH
gust
MPH
rain 1hr
in
rain 24hr
in
rain mn
in
humidity
%
barometer
mb
20260904043111 56 308 0.0 0.0 0.00 0.00 0.00 92 1016.0
20260904041111 56 308 0.0 0.0 0.00 0.00 0.00 91 1015.8
20260904040111 57 308 0.0 0.0 0.00 0.00 0.00 92 1016.1
20260904035111 57 308 0.0 0.0 0.00 0.00 0.00 91 1016.2
20260904033111 57 308 0.0 0.0 0.00 0.00 0.00 91 1016.2
20260904032111 57 308 0.0 0.0 0.00 0.00 0.00 91 1016.4
20260904025111 57 308 0.0 0.0 0.00 0.00 0.00 91 1016.6
20260904022111 58 308 0.0 0.0 0.00 0.00 0.00 90 1016.7
20260904021111 58 308 0.0 0.0 0.00 0.00 0.00 90 1016.7
20260904012109 58 308 0.0 0.0 0.00 0.00 0.00 90 1017.0
20260904004109 58 308 0.0 0.0 0.00 0.00 0.00 90 1016.7
20260904002109 58 308 0.0 0.0 0.00 0.00 0.00 92 1016.8
20260903234109 57 308 0.0 0.0 0.00 0.00 0.00 89 1017.2
20260903232108 58 308 0.0 0.0 0.00 0.00 0.00 88 1017.5
20260903230108 58 308 0.0 0.0 0.00 0.00 0.00 87 1017.5
20260903225108 58 308 0.0 1.0 0.00 0.01 0.00 87 1017.6
20260903223108 58 307 0.0 0.0 0.00 0.01 0.00 87 1017.7
20260903221108 59 307 0.0 0.0 0.00 0.01 0.00 87 1017.9
20260903212108 58 305 0.0 5.0 0.00 0.01 0.01 87 1017.6
20260903210113 58 319 0.0 1.0 0.00 0.01 0.01 86 1017.8
20260903205112 59 319 0.0 0.0 0.00 0.01 0.01 85 1017.8
20260903204112 59 319 0.0 0.0 0.00 0.01 0.01 85 1017.6
20260903203112 60 319 0.0 0.0 0.00 0.01 0.01 84 1017.8
20260903200112 60 76 0.0 0.0 0.00 0.01 0.01 83 1017.9
20260903192112 61 309 0.0 5.0 0.00 0.01 0.01 81 1017.7
20260903184112 60 155 0.0 5.0 0.00 0.09 0.01 81 1017.2
20260903183112 60 153 0.0 0.0 0.00 0.09 0.01 81 1017.1
20260903181112 60 153 0.0 0.0 0.00 0.09 0.01 82 1017.1
20260903180111 61 153 0.0 0.0 0.00 0.09 0.01 81 1016.9
20260903174111 62 153 0.0 0.0 0.00 0.09 0.01 80 1016.8
20260903172111 62 153 0.0 0.0 0.00 0.09 0.01 76 1016.7
20260903171111 63 153 0.0 0.0 0.00 0.09 0.01 75 1016.8
20260903163111 64 153 0.0 1.0 0.00 0.09 0.01 72 1016.8
20260903161111 65 153 0.0 0.0 0.00 0.09 0.01 71 1016.9
20260903160111 65 152 0.0 2.0 0.00 0.09 0.01 70 1017.0
20260903155111 65 152 0.0 0.0 0.00 0.09 0.01 71 1017.1
20260903151111 65 196 1.0 7.0 0.00 0.09 0.01 66 1017.3
20260903150110 65 316 2.0 10.0 0.00 0.09 0.01 66 1017.5
20260903144110 66 144 0.0 6.0 0.00 0.09 0.01 67 1017.5
20260903141110 66 193 2.0 6.0 0.00 0.09 0.01 66 1017.8
20260903132110 66 109 2.0 8.0 0.00 0.09 0.01 68 1018.0
20260903130110 65 148 2.0 10.0 0.00 0.09 0.01 71 1018.2
20260903125110 65 144 1.0 7.0 0.00 0.09 0.01 71 1018.1
20260903124110 64 146 0.0 6.0 0.00 0.09 0.01 71 1018.1
20260903123110 64 146 1.0 8.0 0.00 0.09 0.01 71 1017.9
20260903122110 64 160 1.0 6.0 0.00 0.09 0.01 74 1017.9
20260903121109 63 105 2.0 7.0 0.00 0.09 0.01 77 1017.9
20260903120110 63 196 0.0 5.0 0.00 0.09 0.01 77 1018.0
20260903115109 63 175 0.0 1.0 0.00 0.09 0.01 76 1018.0
20260903113109 64 173 0.0 1.0 0.00 0.09 0.01 77 1018.3
20260903111109 64 151 1.0 7.0 0.00 0.09 0.01 75 1018.5
20260903110109 64 151 0.0 1.0 0.00 0.09 0.01 77 1018.4
20260903105109 64 152 2.0 11.0 0.00 0.09 0.01 76 1018.4
20260903103109 65 115 1.0 6.0 0.00 0.09 0.01 73 1018.7
20260903102109 65 109 0.0 6.0 0.00 0.09 0.01 74 1018.6
20260903100109 65 181 0.0 2.0 0.00 0.09 0.01 77 1018.9
20260903093108 64 136 2.0 7.0 0.00 0.09 0.01 75 1019.0
20260903091108 65 281 1.0 5.0 0.00 0.09 0.01 76 1019.0
20260903090108 65 153 2.0 8.0 0.00 0.09 0.01 75 1019.0
20260903082108 63 159 2.0 8.0 0.00 0.09 0.01 81 1019.0
20260903075113 61 154 0.0 0.0 0.00 0.09 0.01 95 1019.1
20260903073113 59 155 0.0 0.0 0.00 0.09 0.01 96 1019.0
20260903064113 55 155 0.0 0.0 0.00 0.09 0.01 96 1019.1
20260903062112 52 155 0.0 0.0 0.00 0.09 0.01 96 1018.8
20260903061112 51 159 0.0 0.0 0.00 0.09 0.01 95 1018.9
20260903054112 49 159 0.0 0.0 0.00 0.09 0.01 95 1019.2
20260903053112 49 159 0.0 0.0 0.00 0.09 0.01 95 1019.2
20260903052112 49 159 0.0 0.0 0.00 0.09 0.01 95 1019.1
20260903051112 48 159 0.0 0.0 0.00 0.09 0.01 95 1019.0